Terug naar catalogus

FENGYUN 1C DEB

ActiefSSO
NORAD 35116·DEBRIS·🇨🇳 China

Gelanceerd May 10, 1999 vanaf Taiyuan Satellite Launch Center

Loading…

Volgende Passages (komende 24 uur)

TLE

VersSource: Space-Track

Epoch: Sep 14, 2026, 08:38 UTC

1 35116U 99025DKU 26257.36005651  .00001141  00000-0  48681-3 0  9996
2 35116  98.6372 304.6179 0056615 325.8509  33.9034 14.26156537638872

Volg FENGYUN 1C DEB in realtime met AllMySat

Download on the App Store